Home   Weather   Cupertino   Past weeks

Flag for USA Past Weather in Cupertino, California, USA — Yesterday and Last 2 Weeks

Now
53 °F

Clear.


Feels Like: 52 °F
Forecast: 51 / 65 °F
Wind: 5 mph from Northwest

Location: Moffett Field

Current Time: Apr 23, 2017 at 3:09:25 am

Latest Report: Apr 23, 2017 at 1:56 am


Visibility: 10 mi

Pressure: 30.01 "Hg

Humidity: 80%

Dew Point: 47 °F

Location of CupertinoLocation

Past Weather in Cupertino — Graph

°F

Cupertino Temperature Yesterday

Maximum temperature yesterday: 67 °F (at 10:56 am)
Minimum temperature yesterday: 51 °F (at 5:56 am)
Average temperature yesterday: 60 °F

High & Low Weather Summary for the Past Weeks

 TemperatureHumidityPressure
High76 °F (Apr 21, 3:56 pm)100% (Apr 13, 2:04 am)30.33 "Hg (Apr 13, 2:04 am)
Low39 °F (Apr 9, 6:56 am)22% (Apr 22, 10:56 am)29.92 "Hg (Apr 12, 7:56 pm)
Average57 °F71%30.10 "Hg
* Reported Apr 8 1:56 am — Apr 23 1:56 am, Cupertino, Weather by CustomWeather, © 2017

Note: Actual official high and low records may vary slightly from our data, if they occured in-between our weather recording intervals... More about our weather records

Advertising

Cupertino Weather History for the Previous 24 Hours

Scroll right to see more
 ConditionsComfort  
Time TempWeatherWind HumidityBarometerVisibility
1:56 am
Sun, Apr 23
53 °FClear.5 mph80%30.01 "Hg10 mi
12:56 am54 °FClear.6 mph80%30.02 "Hg10 mi
11:56 pm
Sat, Apr 22
54 °FClear.8 mph77%30.03 "Hg10 mi
10:56 pm55 °FClear.9 mph77%30.04 "Hg10 mi
9:56 pm57 °FClear.8 mph67%30.03 "Hg10 mi
8:56 pm57 °FClear.7 mph64%30.03 "Hg10 mi
7:56 pm61 °FPassing clouds.8 mph56%30.01 "Hg10 mi
6:56 pm62 °FPartly sunny.12 mph58%30.01 "Hg10 mi
5:56 pm64 °FSunny.15 mph70%30.00 "Hg10 mi
4:56 pm65 °FSunny.14 mph63%30.01 "Hg10 mi
3:56 pm66 °FBroken clouds.15 mph68%30.01 "Hg10 mi
2:56 pm65 °FOvercast.20 mph70%30.03 "Hg10 mi
1:56 pm65 °FScattered clouds.17 mph66%30.03 "Hg10 mi
12:56 pm66 °FPassing clouds.17 mph56%30.03 "Hg10 mi
11:56 am66 °FSunny.13 mph42%30.04 "Hg10 mi
10:56 am67 °FSunny.10 mph22%30.04 "Hg10 mi
9:56 am64 °FPassing clouds.3 mph41%30.04 "Hg10 mi
8:56 am62 °FBroken clouds.No wind48%30.05 "Hg10 mi
7:56 am55 °FSunny.No wind64%30.06 "Hg10 mi
6:56 am51 °FSunny.No wind71%30.05 "Hg10 mi
5:56 am51 °FClear.No wind74%30.04 "Hg10 mi
4:56 am54 °FClear.3 mph69%30.03 "Hg10 mi
3:56 am54 °FClear.5 mph72%30.03 "Hg10 mi
Weather by CustomWeather, © 2017

See weather overviewHow to use our weather pages